Probability
0 0 0 0 0 0 0 0 0 0 0 0 0 0 0 0 0 0 0 0 0 0 0 0 0 0 0 0 0 0 0 0 0 0 0 0 0 0
0 0 0 0 0 0 0 0 0 0 0 0 0 0 0 0 0 0 0 0 0 0 0 0 0 0 0 0 0 0 0 0 0 0 0 0 0 0
0 0 0 0 0 0 0 0 0 0 0 0 0 0 0 0 0 0 0 0 0 0 0 0 0 0 0 0 0 0 0 0 0 0 0 0 0 0
0 0 0 0 0 0 0 0 0 0 0 0 0 0 0 0 0 0 0 0 0 0 0 0 0 0 0 0 0 0 0 0 0 0 0 0 0 0
0 0 0 0 0 0 0 0 0 0 0 0 0 0 0 0 0 0 0 0 0 0 0 0 0 0 0 0 0 0 0 0 0 0 0 0 0 0
0 0 0 0 0 0 0 0 0 0 0 0 0 0 0 0 0 0 0 0 0 0 0 0 0 0 0 0 0 0 0 0 0 0 0 0 0 0
0 0 0 0 0 0 0 0 0 0 0 0 0 0 0 0 0 0 0 0 0 0 0 0 0 0 0 0 0 0 0 0 0 0 0 0 0 0
0 0 0 0 0 0 0 0 0 0 0 0 0 0 0 0 0 0 0 0 0 0 0 0 0 0 0 0 0 0 0 0 0 0 0 0 0 0
0 0 0 0 0 0 0 0 0 0 0 0 0 0 0 0 0 0 0 0 0 0 0 0 0 0 0 0 0 0 0 0 0 0 0 0 0 0
0 0 0 0 0 0 0 0 0 0 0 0 0 0 0 0 0 0 0 0 0 0 0 0 0 0 0 0 0 0 0 0 0 0 0 0 0 0
0 0 0 0 0 0 0 0 0 0 0 0 0 0 0 0 0 0 0 0 0 0 0 0 0 0 0 0 0 0 0 0 0 0 0 0 0 0
0 0 0 0 0 0 0 0 0 0 0 0 0 0 0 0 0 0 0 0 0 0 0 0 0 0 0 0 0 0 0 0 0 0 0 0 0 0
0 0 0 0 0 0 0 0 0 0 0 0 0 0 0 0 0 0 0 0 0 0 0 0 0 0 0 0 0 0 0 0 0 0 0 0 0 0
0 0 0 0 0 0 0 0 0 0 0 0 0 0 0 0 0 0 0 0 0 0 0 0 0 0 0 0 0 0 0 0 0 0 0 0 0 0
0 0 0 0 0 0 0 0 0 0 0 0 0 0 0 0 0 0 0 0 0 0 0 0 0 0 0 0 0 0 0 0 0 0 0 0 0 0
0 0 0 0 0 0 0 0 0 0 0 0 0 0 0 0 0 0 0 0 0 0 0 0 0 0 0 0 0 0 0 0 0 0 0 0 0 0
0 0 0 0 0 0 0 0 0 0 0 0 0 0 0 0 0 0 0 0 0 0 0 0 0 0 0 0 0 0 0 0 0 0 0 0 0 0
0 0 0 0 0 0 0 0 0 0 0 0 0 0 0 0 0 0 0 0 0 0 0 0 0 0 0 0 0 0 0 0 0 0 0 0 0 0
0 0 0 0 0 0 0 0 0 0 0 0 0 0 0 0 0 0 0 0 0 0 0 0 0 0 0 0 0 0 0 0 0 0 0 0 0 0
0 0 0 0 0 0 0 0 0 0 0 0 0 0 0 0 0 0 0 0 0 0 0 0 0 0 0 0 0 0 0 0 0 0 0 0 0 0
0 0 0 0 0 0 0 0 0 0 0 0 0 0 0 0 0 0 0 0 0 0 0 0 0 0 0 0 0 0 0 0 0 0 0 0 0 0
0 0 0 0 0 0 0 0 0 0 0 0 0 0 0 0 0 0 0 0 0 0 0 0 0 0 0 0 0 0 0 0 0 0 0 0 0 0
0 0 0 0 0 0 0 0 0 0 0 0 0 0 0 0 0 0 0 0 0 0 0 0 0 0 0 0 0 0 0 0 0 0 0 0 0 0
Wind_Speed
2 3 5 6 6 7 8 9 11 14 13 11 10 10 9 10 10 13 15 15 17 18 21 22 23 23 23 23 24 24 23 23 23 24 24 23 23 22
3 5 6 7 7 8 8 8 9 12 14 11 11 11 11 12 14 16 17 19 21 21 22 21 21 22 22 23 23 23 23 23 24 25 25 25 24 24
5 6 7 8 8 8 9 9 9 10 13 12 11 12 14 15 14 15 15 15 14 16 17 17 18 20 22 23 23 23 22 21 21 22 24 25 25 25
6 7 8 7 9 10 8 10 10 10 12 15 13 13 15 15 15 15 14 13 13 15 16 19 20 21 22 22 22 21 19 18 19 19 21 22 24 25
7 8 9 9 10 9 10 10 9 10 10 12 14 12 12 13 14 13 14 12 14 13 15 18 20 21 20 19 19 17 16 15 15 16 18 20 22 22
8 8 9 9 9 10 9 10 11 11 12 11 12 12 11 13 11 10 11 11 11 13 14 14 14 16 18 19 19 19 17 16 15 15 14 14 16 17
8 8 8 8 10 9 10 12 12 11 11 11 11 11 11 10 10 9 10 10 11 12 11 10 9 9 10 14 19 21 19 17 16 15 13 12 10 11
9 8 8 8 7 11 13 14 16 15 14 12 10 11 12 12 10 10 10 10 8 7 9 11 10 10 9 8 8 10 13 14 14 14 13 12 10 9
8 8 8 8 10 10 12 16 16 16 17 14 13 13 12 11 11 11 11 11 10 10 10 11 10 9 8 6 7 8 10 11 12 13 13 12 11 10
8 9 9 10 8 11 14 15 15 14 13 12 11 12 12 11 11 11 11 10 10 10 9 8 8 7 7 6 4 7 8 10 11 12 12 12 11 10
9 8 9 10 8 11 14 14 14 13 12 12 14 15 15 15 12 9 8 7 8 9 7 6 6 7 7 5 2 5 7 8 9 10 10 11 11 10
8 8 6 6 11 13 13 12 12 13 14 13 10 9 9 8 9 8 6 6 6 5 4 5 6 6 5 4 4 3 4 6 7 7 8 9 10 9
8 7 6 7 12 14 14 11 12 15 13 11 8 8 7 6 6 5 4 4 5 4 4 5 4 4 4 5 5 4 3 2 3 5 7 8 9 9
8 7 8 12 15 16 12 10 15 14 8 8 7 7 7 7 7 7 6 5 4 5 6 6 4 4 5 4 4 5 5 3 3 3 3 7 8 8
8 9 12 14 15 11 7 12 11 7 7 7 7 6 6 7 7 7 7 7 5 4 4 5 5 5 5 4 5 4 4 3 2 3 3 4 5 6
8 9 10 10 9 9 9 7 6 6 6 6 6 6 6 6 6 6 6 6 5 4 4 5 5 4 5 7 5 5 5 4 3 3 3 4 5 5
11 8 7 8 8 8 9 8 7 7 6 5 5 5 5 6 6 6 5 5 5 6 7 6 4 0 4 8 7 7 6 5 4 2 1 2 3 4
10 6 7 7 8 8 9 9 9 8 8 6 5 4 5 5 5 5 5 5 6 7 7 8 8 5 2 4 11 10 7 6 5 5 3 2 2 2
6 6 6 7 8 8 9 9 10 10 9 7 6 5 4 5 5 6 6 6 7 7 8 8 9 8 8 8 10 16 10 7 7 7 7 6 5 5
5 5 6 7 8 8 9 9 9 9 9 8 7 6 5 5 5 6 7 9 8 8 8 9 9 8 8 6 6 10 19 12 8 7 7 7 7 9
6 6 6 6 7 8 9 9 9 9 10 9 8 7 6 6 6 6 7 8 8 8 8 8 8 9 7 6 7 9 11 16 17 10 7 5 7 7
6 7 7 7 8 9 9 9 9 9 9 9 9 8 8 7 7 8 7 7 6 6 7 6 8 9 9 10 10 10 11 11 15 22 23 17 7 6
6 7 7 8 8 9 10 11 11 9 9 9 9 9 9 8 7 7 7 6 6 7 7 7 7 8 9 9 9 9 13 12 11 12 13 16 18 18
Wind_Direction
300 301 306 315 300 304 302 298 299 300 299 307 302 303 303 296 300 294 291 288 285 281 276 273 273 273 273 273 271 270 269 268 267 267 267 267 269 269
333 329 316 312 317 300 295 294 292 292 295 301 301 302 308 299 293 290 289 289 280 274 272 269 267 268 270 270 269 267 266 265 264 263 262 262 262 263
323 320 313 314 305 309 301 294 293 296 297 301 304 304 300 293 291 290 290 289 287 280 279 278 272 269 268 268 268 267 265 265 266 265 263 260 258 257
326 318 312 312 308 297 302 301 302 301 295 298 301 301 297 296 293 291 289 289 291 289 282 278 274 271 268 266 265 263 262 263 266 267 266 264 259 255
322 317 314 310 304 306 306 300 299 297 296 295 297 298 296 295 297 296 298 297 294 290 279 268 266 263 260 257 255 254 252 251 257 263 266 264 259 253
318 312 307 307 306 308 302 301 302 303 300 294 293 296 297 301 305 303 300 298 295 295 290 282 271 260 256 252 250 250 246 242 246 253 260 263 254 246
314 310 306 308 300 299 305 309 308 303 299 295 295 298 299 304 303 300 295 296 291 289 291 291 287 278 271 253 244 245 242 237 238 242 248 254 250 239
315 314 306 288 297 292 284 292 296 294 295 295 293 292 295 298 297 295 294 294 293 290 293 293 290 283 280 276 270 246 232 233 237 238 239 240 238 233
314 309 308 317 307 309 312 305 293 282 278 284 286 288 293 296 299 299 297 295 292 293 290 286 286 283 284 279 264 248 237 235 239 240 235 231 229 225
308 304 305 308 323 334 318 306 302 301 298 293 291 293 293 296 298 296 296 294 292 292 293 288 299 307 304 291 252 247 248 243 242 239 232 227 225 222
311 310 307 308 349 331 311 304 306 307 301 289 281 280 280 277 276 286 297 303 308 312 326 314 308 305 296 294 259 229 245 244 241 236 229 223 218 217
315 311 303 332 329 317 311 306 307 315 316 315 309 300 292 285 262 273 301 308 312 305 334 325 308 317 311 310 307 271 234 223 227 227 222 214 205 218
313 315 329 348 321 311 303 301 311 309 308 317 326 329 326 324 322 320 323 308 307 299 316 317 299 307 297 302 310 318 310 274 227 212 208 203 202 221
311 321 333 329 312 301 299 309 306 301 314 333 342 343 340 339 338 335 334 317 291 292 307 313 295 307 306 301 304 316 315 293 265 245 211 187 200 214
317 316 306 300 299 297 295 298 300 316 336 339 345 348 347 345 345 343 343 340 328 313 315 312 311 317 317 311 312 310 312 306 271 248 229 206 196 191
325 314 299 290 298 315 314 314 326 337 331 333 339 344 353 358 358 352 346 345 345 345 343 331 316 340 353 340 325 323 320 307 298 277 240 213 201 200
323 317 338 345 343 341 336 336 336 337 340 338 338 343 350 360 2 360 356 351 356 358 356 348 330 224 69 21 350 339 334 332 331 321 249 191 185 189
313 339 346 342 336 332 330 333 337 342 344 343 344 354 359 6 9 10 13 10 8 9 7 4 5 15 9 71 28 353 346 351 359 14 35 62 84 120
328 348 342 334 330 329 329 331 334 341 346 355 2 12 17 20 20 23 22 20 21 21 19 15 12 12 19 17 15 10 4 2 16 33 37 43 51 58
350 341 333 327 326 325 326 331 335 341 354 6 14 22 31 38 38 37 34 28 28 25 23 21 16 14 23 20 13 18 21 23 18 28 38 51 60 66
340 335 327 322 322 323 328 334 341 350 4 11 22 32 43 48 48 46 49 44 36 32 27 22 19 23 36 35 38 34 35 37 42 36 15 37 50 49
336 329 325 324 327 332 339 347 354 3 13 20 28 37 45 50 55 54 50 49 45 41 40 39 41 45 43 41 40 36 38 42 43 45 44 44 46 43
333 327 324 329 337 342 350 354 358 13 21 22 33 40 44 48 53 56 57 55 52 50 51 51 56 60 60 58 54 49 49 49 49 52 51 46 63 72